• In Russia
  • List of Countries
  • For 7 days
  • Water Temperature
  • Satellite Maps
  • Weather Map
  • Weather Widgets
  • user-avatar
    Login

    Hourly Weather Lozenec

    Today, 21 January, Sunday

    Time Temperature Precipitation Wind Pressure Humidity
    00:00 +7°C° 2.1 mm 6 mps 754 mmHg 92%
    01:00 +6°C° 2.1 mm 5 mps 755 mmHg 91%
    02:00 +3°C° 2.1 mm 5 mps 755 mmHg 89%
    03:00 +4°C° 0 mm 4 mps 756 mmHg 89%
    04:00 +4°C° 0 mm 3 mps 756 mmHg 89%
    05:00 +4°C° 0 mm 2 mps 757 mmHg 88%
    06:00 +4°C° 0 mm 2 mps 757 mmHg 87%
    07:00 +5°C° 0 mm 2 mps 756 mmHg 87%
    08:00 +5°C° 0 mm 2 mps 756 mmHg 86%
    09:00 +4°C° 0.4 mm 3 mps 756 mmHg 87%
    10:00 +5°C° 0.4 mm 4 mps 756 mmHg 88%
    11:00 +5°C° 0.4 mm 5 mps 756 mmHg 89%
    12:00 +5°C° 0.9 mm 5 mps 755 mmHg 90%
    13:00 +6°C° 0.9 mm 5 mps 754 mmHg 92%
    14:00 +6°C° 0.9 mm 5 mps 753 mmHg 94%
    15:00 +6°C° 1.7 mm 4 mps 753 mmHg 94%
    16:00 +7°C° 1.7 mm 4 mps 752 mmHg 95%
    17:00 +8°C° 1.7 mm 3 mps 752 mmHg 96%
    18:00 +8°C° 1 mm 3 mps 751 mmHg 96%
    19:00 +9°C° 1 mm 3 mps 751 mmHg 97%
    20:00 +9°C° 1 mm 3 mps 750 mmHg 97%
    21:00 +9°C° 0.6 mm 3 mps 749 mmHg 97%
    22:00 +9°C° 0.6 mm 3 mps 749 mmHg 97%
    23:00 +9°C° 0.6 mm 3 mps 748 mmHg 97%

    Tomorrow, 22 January, Monday

    Time Temperature Precipitation Wind Pressure Humidity
    00:00 +9°C° 0.8 mm 3 mps 748 mmHg 97%
    01:00 +8°C° 0.8 mm 4 mps 747 mmHg 96%
    02:00 +8°C° 0.8 mm 4 mps 747 mmHg 95%
    03:00 +8°C° 0.7 mm 4 mps 746 mmHg 95%
    04:00 +8°C° 0.7 mm 4 mps 746 mmHg 95%
    05:00 +8°C° 0.7 mm 4 mps 745 mmHg 95%
    06:00 +7°C° 1.2 mm 5 mps 746 mmHg 92%
    07:00 +5°C° 1.2 mm 7 mps 746 mmHg 88%
    08:00 +4°C° 1.2 mm 8 mps 746 mmHg 85%
    09:00 +4°C° 0.5 mm 8 mps 746 mmHg 84%
    10:00 +2°C° 0.5 mm 9 mps 747 mmHg 82%
    11:00 +2°C° 0.5 mm 10 mps 747 mmHg 81%
    12:00 +2°C° 0.2 mm 10 mps 748 mmHg 80%
    13:00 +3°C° 0.2 mm 10 mps 748 mmHg 79%
    14:00 +3°C° 0.2 mm 11 mps 748 mmHg 79%
    15:00 +2°C° 0 mm 11 mps 749 mmHg 80%
    16:00 +2°C° 0 mm 11 mps 750 mmHg 81%
    17:00 +1°C° 0 mm 11 mps 751 mmHg 83%
    18:00 +1°C° 0.1 mm 11 mps 751 mmHg 83%
    19:00 -1°C° 0.1 mm 11 mps 752 mmHg 83%
    20:00 0°C° 0.1 mm 10 mps 753 mmHg 83%
    21:00 -2°C° 0 mm 10 mps 754 mmHg 83%
    22:00 -2°C° 0 mm 10 mps 755 mmHg 82%
    23:00 -2°C° 0 mm 10 mps 755 mmHg 82%

    Day after tomorrow, 23 January, Tuesday

    Time Temperature Precipitation Wind Pressure Humidity
    00:00 -3°C° 0 mm 10 mps 756 mmHg 82%
    01:00 -3°C° 0 mm 10 mps 757 mmHg 82%
    02:00 -3°C° 0 mm 9 mps 757 mmHg 82%
    03:00 -3°C° 0 mm 9 mps 758 mmHg 82%
    04:00 -4°C° 0 mm 9 mps 758 mmHg 82%
    05:00 -4°C° 0 mm 9 mps 759 mmHg 82%
    06:00 -4°C° 0 mm 9 mps 759 mmHg 81%
    07:00 -4°C° 0 mm 9 mps 760 mmHg 80%
    08:00 -4°C° 0 mm 9 mps 761 mmHg 80%
    09:00 -3°C° 0 mm 9 mps 761 mmHg 75%
    10:00 -3°C° 0 mm 9 mps 762 mmHg 71%
    11:00 -1°C° 0 mm 9 mps 762 mmHg 67%
    12:00 0°C° 0 mm 9 mps 763 mmHg 64%
    13:00 0°C° 0 mm 9 mps 763 mmHg 62%
    14:00 0°C° 0 mm 8 mps 763 mmHg 60%
    15:00 0°C° 0 mm 8 mps 764 mmHg 63%
    16:00 -1°C° 0 mm 8 mps 764 mmHg 65%
    17:00 -2°C° 0 mm 8 mps 765 mmHg 67%
    18:00 -2°C° 0 mm 8 mps 765 mmHg 68%
    19:00 -2°C° 0 mm 8 mps 766 mmHg 69%
    20:00 -4°C° 0 mm 8 mps 767 mmHg 70%
    21:00 -4°C° 0 mm 8 mps 767 mmHg 67%
    22:00 -4°C° 0 mm 8 mps 768 mmHg 64%
    23:00 -4°C° 0 mm 8 mps 768 mmHg 61%

    24 January, Wednesday

    Time Temperature Precipitation Wind Pressure Humidity
    00:00 -5°C° 0 mm 8 mps 769 mmHg 56%
    01:00 -5°C° 0 mm 8 mps 769 mmHg 52%
    02:00 -5°C° 0 mm 8 mps 769 mmHg 47%
    03:00 -5°C° 0 mm 8 mps 769 mmHg 47%
    04:00 -5°C° 0 mm 8 mps 769 mmHg 47%
    05:00 -5°C° 0 mm 8 mps 770 mmHg 47%
    06:00 -4°C° 0 mm 7 mps 770 mmHg 47%
    07:00 -4°C° 0 mm 7 mps 770 mmHg 47%
    08:00 -4°C° 0 mm 7 mps 770 mmHg 48%
    09:00 -3°C° 0 mm 7 mps 771 mmHg 43%
    10:00 -2°C° 0 mm 7 mps 771 mmHg 39%
    11:00 -1°C° 0 mm 8 mps 771 mmHg 35%
    12:00 -1°C° 0 mm 7 mps 771 mmHg 35%
    13:00 0°C° 0 mm 7 mps 770 mmHg 35%
    14:00 0°C° 0 mm 7 mps 770 mmHg 35%
    15:00 -1°C° 0 mm 7 mps 770 mmHg 41%
    16:00 -2°C° 0 mm 7 mps 770 mmHg 46%
    17:00 -2°C° 0 mm 6 mps 769 mmHg 52%
    18:00 -3°C° 0 mm 6 mps 770 mmHg 58%
    19:00 -3°C° 0 mm 6 mps 770 mmHg 64%
    20:00 -4°C° 0 mm 6 mps 770 mmHg 70%
    21:00 -4°C° 0 mm 6 mps 770 mmHg 72%
    22:00 -4°C° 0 mm 6 mps 769 mmHg 75%
    23:00 -4°C° 0 mm 6 mps 769 mmHg 77%

    25 January, Thursday

    Time Temperature Precipitation Wind Pressure Humidity
    00:00 -4°C° 0 mm 7 mps 769 mmHg 74%
    01:00 -3°C° 0 mm 7 mps 769 mmHg 72%
    02:00 -3°C° 0 mm 7 mps 768 mmHg 69%
    03:00 -4°C° 0.1 mm 8 mps 768 mmHg 71%
    04:00 -5°C° 0.1 mm 8 mps 768 mmHg 72%
    05:00 -5°C° 0.1 mm 8 mps 767 mmHg 73%
    06:00 -5°C° 0.2 mm 8 mps 767 mmHg 74%
    07:00 -6°C° 0.2 mm 8 mps 768 mmHg 75%
    08:00 -6°C° 0.2 mm 8 mps 768 mmHg 76%
    09:00 -6°C° 0.1 mm 8 mps 768 mmHg 74%
    10:00 -5°C° 0.1 mm 8 mps 768 mmHg 71%
    11:00 -4°C° 0.1 mm 8 mps 768 mmHg 69%
    12:00 -4°C° 0 mm 8 mps 767 mmHg 67%
    13:00 -2°C° 0 mm 8 mps 767 mmHg 66%
    14:00 -2°C° 0 mm 8 mps 767 mmHg 64%
    15:00 -2°C° 0 mm 7 mps 767 mmHg 68%
    16:00 -3°C° 0 mm 7 mps 767 mmHg 72%
    17:00 -4°C° 0 mm 7 mps 767 mmHg 76%
    18:00 -3°C° 0.1 mm 7 mps 767 mmHg 79%
    19:00 -3°C° 0.1 mm 6 mps 767 mmHg 83%
    20:00 -3°C° 0.1 mm 6 mps 767 mmHg 86%
    21:00 -3°C° 0 mm 6 mps 767 mmHg 86%
    22:00 -2°C° 0 mm 7 mps 767 mmHg 86%
    23:00 -2°C° 0 mm 7 mps 767 mmHg 86%

    26 January, Friday

    Time Temperature Precipitation Wind Pressure Humidity
    00:00 -2°C° 0 mm 7 mps 767 mmHg 86%
    01:00 -1°C° 0 mm 8 mps 767 mmHg 86%
    02:00 -1°C° 0 mm 8 mps 767 mmHg 86%
    03:00 -2°C° 0 mm 8 mps 767 mmHg 87%
    04:00 -2°C° 0 mm 8 mps 767 mmHg 87%
    05:00 -2°C° 0 mm 8 mps 767 mmHg 87%
    06:00 -2°C° 0.1 mm 8 mps 767 mmHg 87%
    07:00 -2°C° 0.1 mm 8 mps 768 mmHg 87%
    08:00 -2°C° 0.1 mm 8 mps 768 mmHg 87%
    09:00 -2°C° 0.1 mm 8 mps 768 mmHg 84%
    10:00 -1°C° 0.1 mm 8 mps 768 mmHg 81%
    11:00 -1°C° 0.1 mm 8 mps 768 mmHg 78%
    12:00 0°C° 0 mm 8 mps 768 mmHg 77%
    13:00 0°C° 0 mm 8 mps 767 mmHg 76%
    14:00 0°C° 0 mm 8 mps 767 mmHg 75%
    15:00 0°C° 0.1 mm 8 mps 767 mmHg 78%
    16:00 -1°C° 0.1 mm 8 mps 768 mmHg 80%
    17:00 -1°C° 0.1 mm 7 mps 768 mmHg 82%
    18:00 -1°C° 0 mm 7 mps 768 mmHg 84%
    19:00 -2°C° 0 mm 7 mps 768 mmHg 85%
    20:00 -2°C° 0 mm 7 mps 769 mmHg 87%
    21:00 -2°C° 0 mm 6 mps 769 mmHg 87%
    22:00 -3°C° 0 mm 6 mps 769 mmHg 88%
    23:00 -3°C° 0 mm 6 mps 769 mmHg 88%
    Show more